Regional Weather Roundup
Issued by NWS

Home | Current Version | Previous Version | Text Only | Print | Product List | Glossary Off
Versions: 1 2 3 4 5 6 7 8 9 10 11 12 13 14 15 16 17 18 19 20 21 22 23 24 25 26 27 28 29 30 31 32 33 34 35 36 37 38 39 40 41 42 43 44 45 46 47 48 49 50

000
ASUS45 KCYS 290810
RWRWY

WYOMING REGIONAL WEATHER ROUNDUP
NATIONAL WEATHER SERVICE CHEYENNE WY
200 AM MDT FRI MAY 29 2015

NOTE:  "FAIR" INDICATES FEW OR NO CLOUDS BELOW 12,000 FEET
WITH NO SIGNIFICANT WEATHER AND/OR OBSTRUCTIONS TO VISIBILITY.

WYZ001-290900-
YELLOWSTONE NATIONAL PARK

CITY           SKY/WX    TMP DP  RH WIND       PRES   REMARKS
LK YELLOWSTONE   N/A     35  33  92 CALM      30.32S
W YELLOWSTONE  NOT AVBL

$$
WYZ002>013-054>058-071-098>099-290900-
NORTHERN WYOMING

CITY           SKY/WX    TMP DP  RH WIND       PRES   REMARKS
JACKSON        CLOUDY    39  39 100 CALM      30.27S
CODY           CLOUDY    48  45  87 N10       30.24S
GREYBULL       CLOUDY    53  50  89 NW10      30.17R
WORLAND        CLOUDY    53  47  79 N6        30.18S
SHERIDAN       RAIN      51  49  92 NW12      30.20S
BUFFALO        LGT RAIN  49  47  93 NW14      30.19F
GILLETTE       CLOUDY    51  49  92 N13       30.13S FOG
HULETT         LGT RAIN  52  50  93 N3        30.12S
NEWCASTLE      FAIR      52  50  93 NW9       30.09S

$$
WYZ014>020-022>026-101>103-290900-
CENTRAL WYOMING

CITY           SKY/WX    TMP DP  RH WIND       PRES   REMARKS
BIG PINEY      FAIR      37  34  89 NE6       30.25S WCI  32
PINEDALE       FAIR      36  36 100 CALM      30.27R
DUBOIS         PTSUNNY   41  36  81 NW5       30.26S
LANDER         CLOUDY    47  43  86 E5        30.22S
RIVERTON       CLOUDY    49  44  83 W6        30.23S
CASPER         LGT RAIN  48  44  86 NW12      30.19S
DOUGLAS        LGT RAIN  51  48  89 NW9       30.15F

$$
WYZ021-027>030-104>119-290900-
SOUTHERN WYOMING

CITY           SKY/WX    TMP DP  RH WIND       PRES   REMARKS
EVANSTON       FAIR      45  36  70 CALM      30.26F
KEMMERER       FAIR      37  36  93 NW7       30.26S WCI  32
FORT BRIDGER   SUNNY     41  39  93 W8        30.29S
ROCK SPRINGS   MOCLDY    42  37  82 E5        30.25R
DIXON          DRIZZLE   46  42  88 CALM      30.26R
RAWLINS        CLOUDY    45  40  82 W5        30.23R
SARATOGA       CLOUDY    43  37  81 SE5       30.24S
LARAMIE        CLOUDY    45  37  73 CALM      30.21R
CHEYENNE       CLOUDY    50  40  68 N9        30.16F
TORRINGTON     CLOUDY    55  48  77 W9        30.08S
PINE BLUFFS    FAIR      46  45  93 NW7       30.13F

$$


USA.gov is the U.S. government's official web portal to all federal, state and local government web resources and services.